Погода в Колывани

Погода в Колывани : погода сейчас, прогноз погоды и архив. Всё, что Вы хотите узнать о погоде в Колывани!

Хотите узнать прогноз погоды в Колывани? Тогда Вам сюда: Погода в Колывани

Поиск расширенной информации на нашем сайте:

Другие новости

Новости СМИ2

Главная страница сайта

Новости сайта

03.07.2017

Напоминаем, что на нашем специализированном сайте Метеоцентр.Азия вы можете получить высокодетализированные автоматические прогнозы погоды по пунктам России, СНГ и мира в авиационном формате (включающие направление и скорость ветра, видимость, явления погоды, количество и форму облачности, нижнюю и верхнюю границу облачности).


Погода в Колывани - сегодня

Время (UTC), дата Ветер
(°,м/с) 
Видим.   Явления Облачность Т
(°С)
Тd
(°С)
f(%) Тe
(°С)
Pmin
(гПа)
dP
(гПа)
Po
(мм)
O2
(г/м3)
Тmin Tmax R s Состояние
почвы
18 15.06.18 170 (Ю) 20000 м    6/3 1000 м верхняя 
[Sc|Ci fib]
+15.9 +11.5 75 +20  1007.4  -0.7  743  281           
21 15.06.18 180 (Ю) 20000 м    8/8 1000 м 
[Sc diur, vesp]
+16.4 +11.1 71 +20  1006.5  -0.9  742  280           
00 16.06.18 190 (Ю) 20000 м    8/8 1000 м 
[Sc diur, vesp]
+16.1 +11.1 72 +19  1006.9  0.4  742  280  +15.2        влажная 
03 16.06.18 190 (Ю) 20000 м    6/3 1000 м верхняя 
[Sc|Ci fib]
+20.2 +11.7 58 +24  1006.4  -0.3  742  276           
06 16.06.18 210 (ЮЗ) 20000 м    10/10 1000 м 
[Sc]
+20.2 +12.9 63 +26  1007.6  1.2  743  276           
12 16.06.18 230 (ЮЗ) 20000 м  в посл. час ливневой дождь  10/8 600 м кучево-дожд., верхняя 
[Cb cap|Ci fib]
+19.3 +13.9 71 +27  1007.7  0.4  743  277    +21.7  0.4     
15 16.06.18 тихо ()   20000 м    10/5 600 м кучево-дожд., верхняя 
[Cb cap|Ci fib]
+15.4 +11 75 +18  1009.1  1.1  744  282           
18 16.06.18 тихо ()   20000 м    6/6 1000 м верхняя 
[Sc|Ci fib]
+11.6 +10.5 93 +14  1009.7  0.4  744  286           
21 16.06.18 100 (В) 20000 м    9/8 1000 м верхняя 
[Sc|Ci fib]
+12.2 +11 92 +16  1009.5  -0.2  744  285           
00 17.06.18 тихо ()   20000 м    10/10 600 м кучево-дожд. 
[Cb cap]
+13.5 +10.8 84 +16  1009  -0.4  744  284  +11        влажная 
03 17.06.18 080 (В) 20000 м  в посл. час ливневой дождь  10/10 600 м кучево-дожд. 
[Cb cap]
+14.2 +12.4 89 +20  1009.1  0.1  744  282           
06 17.06.18 160 (Ю) 20000 м  {ливн. осадки}  10/8 600 м кучево-дожд., верхняя 
[Cb cap|Ci fib]
+20.9 +14.2 66 +28  1007.7  -0.9  743  275           
09 17.06.18 130 (ЮВ) 20000 м    9/8 1000 м верхняя 
[Cu med, cong|Ci fib]
+23.8 +13.7 53 +31  1006  -1.5  742  272           
12 17.06.18 070 (В) 20000 м    8/3 1000 м средняя, верхняя 
[Cu med, cong|Ac trans|Ci fib]
+24.3 +15.2 57 +34  1004.5  -1.5  741  271    +25.4  0.3     
15 17.06.18 080 (В) 20000 м    8/4 1500 м верхняя 
[Sc|Ci fib]
+21.6 +15.4 68 +31  1002.5  -2.1  739  273           
18 17.06.18 230 (ЮЗ) 4{10}  20000 м    8/6 600 м кучево-дожд., верхняя 
[Cb cap|Ci fib]
+21.9 +13.8 60 +29  1003.4  0.8  740  273           
21 17.06.18 090 (В) 3{12}  20000 м    9/9 1000 м кучево-дожд. 
[Cb cap]
+17.8 +13.5 76 +25  1002.9  -0.6  739  277           
00 18.06.18 280 (З) 20000 м  {ливн. осадки}  9/8 600 м кучево-дожд., верхняя 
[Cb cap|Ci fib]
+16.5 +13.9 85 +24  1003.5  0.4  740  278  +16    0.0    влажная 
03 18.06.18 010 (С) 20000 м    6/3 1000 м средняя, верхняя 
[Sc|Ac trans|Ci fib]
+23.7 +16.7 65 +36  1001.7  -1.3  739  270           
06 18.06.18 080 (В) 20000 м    1/0 верхняя 
[Ci fib]
+29.1 +13.7 39 +36  999.8  -1.6  738  266           
09 18.06.18 100 (В) 20000 м    4/1 600 м верхняя 
[Sc|Ci fib]
+30.4 +10.4 29 +32  998.5  -1.2  737  265           
12 18.06.18 110 (В) 20000 м    6/3 600 м верхняя 
[Cu med, cong|Ci fib]
+29.9 +10.9 31 +33  997.5  -0.9  736  265    +30.6       
15 18.06.18 340 (С) 20000 м    6/5 1000 м верхняя 
[Sc|Ci fib]
+21.6 +12.9 58 +27  998.2  0.1  736  272           
21 18.06.18 150 (ЮВ) 20000 м  в посл. час ливневой дождь{гроза}  10/10 300 м кучево-дожд. 
[Cb cap]
+16 +15 94 +26  998.3  -0.1  736  277           
00 19.06.18 170 (Ю) 20000 м  {гроза, ливн. осадки}  ясно 
+16.7 +15.7 94 +28  998.9  0.6  736  276  +14.9    18    мокрая 
Время (UTC), дата Ветер
(°,м/с) 
Видим.   Явления Облачность Т
(°С)
Тd
(°С)
f(%) Тe
(°С)
Pmin
(гПа)
dP
(гПа)
Po
(мм)
O2
(г/м3)
Тmin Tmax R s Состояние
почвы

Для получения пояснительной информации подведите курсор к названию столбца.

ПОГОДА в Колывани - архив

Всё, что Вы хотите узнать о погоде в Колывани - удобно и подробно!

Выберите нужную дату (начиная с 1 января 2015* года) и нажмите кнопку "Найти".
Будут отображены архивные сводки погоды по пункту Колывань, начиная с указанной даты.


Отображать данные в формате CSV (для использования в таблицах Excel)


Внимание! Наш архив погоды предназначен исключительно для личного некоммерческого использования в познавательных целях. Если Вам необходимы официальные справки о состоянии погоды (для производственных, юридических, коммерческих и т.п. целей), обращайтесь в органы Росгидромета.

*Примечание: данная дата относится к архиву по метеостанциям СССР (Россия, СНГ, Балтия).
Архив по метеостанциям Зарубежной Европы и Азии (кроме Китая) хранится 10 дней, по другим регионам земного шара (Китай, Африка, Америка, Австралия, Океания) - 1 день.

Колывань - район местоположения метеостанции


Название, широта, долгота, высота метеостанции:
Колывань 55.3°ш. 82.8°д. 137 м над ур. моря [Российская Федерация]

Дополнительная информация

В oтличие oт бoльшинства пoгoдных сайтoв мы публикуем пoдрoбную метеoинфoрмацию в детальнoм прoфессиoнальнoм фoрмате.

Характеристики температуры и влажнoсти вoздуха измеряются на высoте 2 м в тени вдали oт зданий и деревьев.
Скoрoсть ветра измеряется на высoте 10 м (на урoвне рoста челoвека скoрoсть ветра ниже в 1.5-2 раза). Если метеoстанция нахoдится в гoрoде или в лесу, тo скoрoсть ветра занижена на 2-4 м/с пo сравнению с oткрытым местoм. Скoрoсть ветра над акватoриями крупных рек и oзёр, а также на вершинах хoлмoв на 2-5 м/с выше, чем в oбычных услoвиях.
Атмoсфернoе давление в разных тoчках местнoсти мoжет значительнo oтличаться oт давления на метеoстанции, в зависимoсти oт услoвий рельефа (при пoдъёме на 10 м давление пoнижается примернo на 1 мм рт.ст.).